Overview Statistics Trail Chart Weather Telemetry Raw packets
 

This is the latest recevied weather packets stored in our database for station/object KI4NG. If no packets are shown the sender has not sent any weather packets the latest 10 day(s).

<< 34 35 36 37 38 39 40 >>
Time Temp. Humidity Pressure Rain* Wind** Luminosity Snow
1788386876 32.22° C 62% 1020.2 hPa 0 mm - 120 W/m² -
1788386575 32.78° C 56% 1020 hPa 0 mm - 89 W/m² -
1788386271 32.78° C 58% 1020.1 hPa 0 mm - 99 W/m² -
1788385966 32.78° C 57% 1020 hPa 0 mm - 102 W/m² -
1788385662 33.89° C 54% 1019.9 hPa 0 mm - 96 W/m² -
1788385361 34.44° C 53% 1019.8 hPa 0 mm - 350 W/m² -
1788385057 33.89° C 53% 1020.1 hPa 0 mm - 372 W/m² -
1788384757 33.89° C 54% 1020 hPa 0 mm - 390 W/m² -
1788384456 35° C 53% 1020 hPa 0 mm - 364 W/m² -
1788384153 34.44° C 55% 1020.1 hPa 0 mm - 403 W/m² -
1788383848 34.44° C 52% 1020 hPa 0 mm - 438 W/m² -
1788383544 34.44° C 54% 1019.9 hPa 0 mm - 386 W/m² -
1788383238 34.44° C 53% 1020.1 hPa 0 mm - 419 W/m² -
1788382934 34.44° C 55% 1020.4 hPa 0 mm - 466 W/m² -
1788382631 33.89° C 52% 1020.2 hPa 0 mm - 404 W/m² -
1788382326 34.44° C 51% 1020.2 hPa 0 mm - 445 W/m² -
1788382022 34.44° C 53% 1020.2 hPa 0 mm - 479 W/m² -
1788381716 34.44° C 52% 1020.3 hPa 0 mm - 496 W/m² -
1788381411 34.44° C 52% 1020.2 hPa 0 mm - 513 W/m² -
1788381106 35° C 52% 1020.4 hPa 0 mm - 256 W/m² -
1788380801 35° C 53% 1020.4 hPa 0 mm - 484 W/m² -
1788380498 34.44° C 56% 1020.4 hPa 0 mm - 519 W/m² -
1788380194 33.33° C 55% 1020.4 hPa 0 mm - 507 W/m² -
1788379893 34.44° C 56% 1020.4 hPa 0 mm - 507 W/m² -
1788379588 33.89° C 56% 1020.6 hPa 0 mm - 293 W/m² -

* Rain latest hour (hover to see other rain measurements)
** Current wind speed in m/s (hover to see current wind gust speed)